When you browse on this site, cookies collect data to enhance your experience and personalize the content and advertising you see.
Visit our Privacy Policy to learn more. By continuing to use the site, you agree to this use of cookies and data.
  • In Norway
  • List of Countries
  • For 7 days
  • Water Temperature
  • Satellite Maps
  • Weather Map
  • Weather Widgets
  • user-avatar
    Login

    Hourly Weather Brisbane

    Today, 13 December, Thursday

    Time Temperature Precipitation Wind Pressure Humidity
    00:00 +23°C° 0 mm 2 mps 757 mmHg 85%
    01:00 +23°C° 0 mm 2 mps 757 mmHg 86%
    02:00 +21°C° 0 mm 2 mps 756 mmHg 87%
    03:00 +21°C° 0 mm 2 mps 756 mmHg 88%
    04:00 +22°C° 0 mm 1 mps 755 mmHg 90%
    05:00 +23°C° 0 mm 2 mps 755 mmHg 84%
    06:00 +24°C° 0 mm 2 mps 756 mmHg 77%
    07:00 +25°C° 0 mm 2 mps 756 mmHg 70%
    08:00 +28°C° 0 mm 3 mps 756 mmHg 61%
    09:00 +30°C° 0 mm 3 mps 755 mmHg 52%
    10:00 +32°C° 0 mm 4 mps 755 mmHg 48%
    11:00 +33°C° 0 mm 4 mps 755 mmHg 44%
    12:00 +34°C° 0 mm 4 mps 754 mmHg 40%
    13:00 +35°C° 0 mm 5 mps 754 mmHg 36%
    14:00 +35°C° 0 mm 5 mps 753 mmHg 40%
    15:00 +34°C° 0 mm 6 mps 752 mmHg 43%
    16:00 +33°C° 0 mm 6 mps 752 mmHg 46%
    17:00 +32°C° 0 mm 6 mps 752 mmHg 53%
    18:00 +29°C° 0 mm 6 mps 752 mmHg 61%
    19:00 +27°C° 0 mm 6 mps 751 mmHg 68%
    20:00 +27°C° 0 mm 6 mps 752 mmHg 71%
    21:00 +26°C° 0 mm 6 mps 752 mmHg 73%
    22:00 +26°C° 0 mm 6 mps 753 mmHg 73%
    23:00 +25°C° 0.6 mm 5 mps 753 mmHg 77%

    Tomorrow, 14 December, Friday

    Time Temperature Precipitation Wind Pressure Humidity
    00:00 +25°C° 0.6 mm 4 mps 753 mmHg 81%
    01:00 +24°C° 0.6 mm 3 mps 753 mmHg 85%
    02:00 +24°C° 0.3 mm 3 mps 753 mmHg 86%
    03:00 +24°C° 0.3 mm 3 mps 752 mmHg 88%
    04:00 +24°C° 0.3 mm 3 mps 752 mmHg 89%
    05:00 +25°C° 0 mm 3 mps 752 mmHg 87%
    06:00 +25°C° 0 mm 3 mps 752 mmHg 86%
    07:00 +26°C° 0 mm 3 mps 753 mmHg 84%
    08:00 +27°C° 0.1 mm 4 mps 753 mmHg 79%
    09:00 +29°C° 0.1 mm 4 mps 752 mmHg 73%
    10:00 +30°C° 0.1 mm 4 mps 752 mmHg 68%
    11:00 +32°C° 1.2 mm 5 mps 752 mmHg 65%
    12:00 +33°C° 1.2 mm 5 mps 752 mmHg 62%
    13:00 +34°C° 1.2 mm 5 mps 752 mmHg 58%
    14:00 +33°C° 0.1 mm 5 mps 751 mmHg 59%
    15:00 +33°C° 0.1 mm 5 mps 751 mmHg 60%
    16:00 +33°C° 0.1 mm 6 mps 751 mmHg 61%
    17:00 +30°C° 0 mm 6 mps 751 mmHg 67%
    18:00 +29°C° 0 mm 6 mps 751 mmHg 74%
    19:00 +28°C° 0 mm 6 mps 751 mmHg 80%
    20:00 +27°C° 1.6 mm 5 mps 752 mmHg 83%
    21:00 +27°C° 1.6 mm 5 mps 753 mmHg 86%
    22:00 +26°C° 1.6 mm 4 mps 754 mmHg 90%
    23:00 +26°C° 3.5 mm 4 mps 753 mmHg 90%

    Day after tomorrow, 15 December, Saturday

    Time Temperature Precipitation Wind Pressure Humidity
    00:00 +26°C° 3.5 mm 5 mps 753 mmHg 91%
    01:00 +26°C° 3.5 mm 5 mps 753 mmHg 92%
    02:00 +26°C° 3.1 mm 5 mps 753 mmHg 92%
    03:00 +26°C° 3.1 mm 5 mps 753 mmHg 91%
    04:00 +26°C° 3.1 mm 4 mps 753 mmHg 91%
    05:00 +26°C° 1.6 mm 5 mps 753 mmHg 88%
    06:00 +27°C° 1.6 mm 6 mps 754 mmHg 84%
    07:00 +28°C° 1.6 mm 6 mps 754 mmHg 81%
    08:00 +29°C° 1.2 mm 7 mps 754 mmHg 77%
    09:00 +30°C° 1.2 mm 7 mps 754 mmHg 73%
    10:00 +32°C° 1.2 mm 7 mps 754 mmHg 70%
    11:00 +32°C° 0.3 mm 7 mps 754 mmHg 68%
    12:00 +32°C° 0.3 mm 7 mps 754 mmHg 67%
    13:00 +32°C° 0.3 mm 7 mps 754 mmHg 65%
    14:00 +30°C° 0.2 mm 7 mps 754 mmHg 69%
    15:00 +29°C° 0.2 mm 6 mps 753 mmHg 73%
    16:00 +29°C° 0.2 mm 6 mps 753 mmHg 76%
    17:00 +28°C° 0.1 mm 6 mps 754 mmHg 79%
    18:00 +27°C° 0.1 mm 5 mps 754 mmHg 82%
    19:00 +26°C° 0.1 mm 5 mps 755 mmHg 85%
    20:00 +26°C° 0.1 mm 5 mps 755 mmHg 86%
    21:00 +26°C° 0.1 mm 5 mps 756 mmHg 87%
    22:00 +26°C° 0.1 mm 5 mps 756 mmHg 88%
    23:00 +26°C° 0.1 mm 5 mps 756 mmHg 88%

    16 December, Sunday

    Time Temperature Precipitation Wind Pressure Humidity
    00:00 +26°C° 0.1 mm 4 mps 756 mmHg 89%
    01:00 +25°C° 0.1 mm 4 mps 755 mmHg 90%
    02:00 +25°C° 0.1 mm 4 mps 755 mmHg 90%
    03:00 +25°C° 0.1 mm 4 mps 756 mmHg 90%
    04:00 +25°C° 0.1 mm 4 mps 756 mmHg 90%
    05:00 +25°C° 0.1 mm 4 mps 756 mmHg 88%
    06:00 +26°C° 0.1 mm 4 mps 756 mmHg 86%
    07:00 +26°C° 0.1 mm 4 mps 757 mmHg 84%
    08:00 +27°C° 0.1 mm 4 mps 757 mmHg 78%
    09:00 +28°C° 0.1 mm 4 mps 757 mmHg 73%
    10:00 +30°C° 0.1 mm 4 mps 757 mmHg 67%
    11:00 +30°C° 0.4 mm 4 mps 757 mmHg 66%
    12:00 +30°C° 0.4 mm 5 mps 756 mmHg 65%
    13:00 +32°C° 0.4 mm 5 mps 756 mmHg 64%
    14:00 +30°C° 0.5 mm 5 mps 756 mmHg 68%
    15:00 +29°C° 0.5 mm 5 mps 755 mmHg 72%
    16:00 +28°C° 0.5 mm 5 mps 755 mmHg 76%
    17:00 +27°C° 0.4 mm 5 mps 755 mmHg 81%
    18:00 +26°C° 0.4 mm 5 mps 756 mmHg 85%
    19:00 +26°C° 0.4 mm 5 mps 756 mmHg 89%
    20:00 +25°C° 0.5 mm 5 mps 756 mmHg 90%
    21:00 +25°C° 0.5 mm 4 mps 757 mmHg 90%
    22:00 +25°C° 0.5 mm 4 mps 757 mmHg 91%
    23:00 +25°C° 1.9 mm 4 mps 757 mmHg 92%

    17 December, Monday

    Time Temperature Precipitation Wind Pressure Humidity
    00:00 +25°C° 1.9 mm 3 mps 756 mmHg 92%
    01:00 +25°C° 1.9 mm 3 mps 756 mmHg 93%
    02:00 +25°C° 1.4 mm 3 mps 756 mmHg 93%
    03:00 +25°C° 1.4 mm 3 mps 756 mmHg 93%
    04:00 +25°C° 1.4 mm 3 mps 756 mmHg 93%
    05:00 +25°C° 0.7 mm 3 mps 756 mmHg 90%
    06:00 +26°C° 0.7 mm 3 mps 757 mmHg 88%
    07:00 +27°C° 0.7 mm 3 mps 757 mmHg 85%
    08:00 +28°C° 1.1 mm 3 mps 757 mmHg 81%
    09:00 +28°C° 1.1 mm 4 mps 757 mmHg 77%
    10:00 +29°C° 1.1 mm 4 mps 757 mmHg 73%
    11:00 +30°C° 0.8 mm 4 mps 757 mmHg 71%
    12:00 +30°C° 0.8 mm 5 mps 757 mmHg 70%
    13:00 +30°C° 0.8 mm 5 mps 756 mmHg 69%
    14:00 +30°C° 0.2 mm 5 mps 756 mmHg 68%
    15:00 +30°C° 0.2 mm 5 mps 756 mmHg 67%
    16:00 +30°C° 0.2 mm 5 mps 756 mmHg 66%
    17:00 +29°C° 0.1 mm 5 mps 757 mmHg 72%
    18:00 +27°C° 0.1 mm 4 mps 757 mmHg 78%
    19:00 +26°C° 0.1 mm 4 mps 758 mmHg 84%
    20:00 +26°C° 0.1 mm 3 mps 758 mmHg 86%
    21:00 +26°C° 0.1 mm 3 mps 759 mmHg 89%
    22:00 +25°C° 0.1 mm 3 mps 759 mmHg 91%
    23:00 +25°C° 0.1 mm 3 mps 759 mmHg 91%

    18 December, Tuesday

    Time Temperature Precipitation Wind Pressure Humidity
    00:00 +25°C° 0.1 mm 3 mps 758 mmHg 92%
    01:00 +25°C° 0.1 mm 2 mps 758 mmHg 92%
    02:00 +25°C° 0.1 mm 2 mps 758 mmHg 93%
    03:00 +24°C° 0.1 mm 2 mps 758 mmHg 93%
    04:00 +24°C° 0.1 mm 2 mps 758 mmHg 93%
    05:00 +25°C° 0 mm 2 mps 758 mmHg 89%
    06:00 +26°C° 0 mm 2 mps 759 mmHg 85%
    07:00 +27°C° 0 mm 3 mps 760 mmHg 81%
    08:00 +28°C° 0 mm 3 mps 760 mmHg 74%
    09:00 +29°C° 0 mm 3 mps 760 mmHg 68%
    10:00 +30°C° 0 mm 3 mps 760 mmHg 61%
    11:00 +32°C° 0 mm 4 mps 759 mmHg 59%
    12:00 +32°C° 0 mm 4 mps 759 mmHg 58%
    13:00 +33°C° 0 mm 4 mps 759 mmHg 56%
    14:00 +32°C° 0 mm 4 mps 758 mmHg 57%
    15:00 +32°C° 0 mm 4 mps 758 mmHg 58%
    16:00 +32°C° 0 mm 4 mps 758 mmHg 58%
    17:00 +29°C° 0 mm 4 mps 758 mmHg 65%
    18:00 +28°C° 0 mm 3 mps 759 mmHg 72%
    19:00 +26°C° 0 mm 3 mps 760 mmHg 79%
    20:00 +26°C° 0 mm 3 mps 760 mmHg 83%
    21:00 +25°C° 0 mm 2 mps 760 mmHg 86%
    22:00 +24°C° 0 mm 2 mps 761 mmHg 90%
    23:00 +24°C° 0 mm 2 mps 760 mmHg 91%
    Show more